| time (UTC) | temp F | wind direction | speed MPH | gust MPH | rain 1hr in | rain 24hr in | rain mn in | humidity % | barometer mb |
| 20260507163920 | 60 | 134 | 16.0 | 23.0 | 0.00 | 0.00 | 0.00 | 26 | 1019.9 |
| 20260507163418 | 60 | 136 | 15.0 | 26.0 | 0.00 | 0.00 | 0.00 | 24 | 1019.6 |
| 20260507162914 | 61 | 134 | 19.0 | 26.0 | 0.00 | 0.00 | 0.00 | 24 | 1019.6 |
| 20260507162409 | 61 | 151 | 15.0 | 25.0 | 0.00 | 0.00 | 0.00 | 25 | 1019.6 |
| 20260507161907 | 60 | 131 | 13.0 | 28.0 | 0.00 | 0.00 | 0.00 | 24 | 1019.5 |
| 20260507161403 | 60 | 134 | 19.0 | 31.0 | 0.00 | 0.00 | 0.00 | 24 | 1019.6 |
| 20260507160900 | 60 | 124 | 13.0 | 21.0 | 0.00 | 0.00 | 0.00 | 24 | 1019.6 |
| 20260507160355 | 60 | 134 | 19.0 | 27.0 | 0.00 | 0.00 | 0.00 | 24 | 1019.5 |
| 20260507155852 | 60 | 144 | 19.0 | 24.0 | 0.00 | 0.00 | 0.00 | 25 | 1019.5 |
| 20260507155348 | 60 | 128 | 14.0 | 28.0 | 0.00 | 0.00 | 0.00 | 25 | 1019.7 |
| 20260507154845 | 60 | 145 | 15.0 | 32.0 | 0.00 | 0.00 | 0.00 | 25 | 1019.6 |
| 20260507154342 | 60 | 148 | 15.0 | 34.0 | 0.00 | 0.00 | 0.00 | 25 | 1019.6 |
| 20260507153839 | 60 | 155 | 17.0 | 23.0 | 0.00 | 0.00 | 0.00 | 26 | 1019.5 |
| 20260507153336 | 60 | 146 | 17.0 | 30.0 | 0.00 | 0.00 | 0.00 | 25 | 1019.7 |
| 20260507152832 | 60 | 144 | 19.0 | 34.0 | 0.00 | 0.00 | 0.00 | 25 | 1019.5 |
| 20260507152328 | 59 | 127 | 16.0 | 28.0 | 0.00 | 0.00 | 0.00 | 25 | 1019.5 |
| 20260507151825 | 59 | 144 | 17.0 | 32.0 | 0.00 | 0.00 | 0.00 | 28 | 1019.6 |
| 20260507151321 | 59 | 142 | 15.0 | 26.0 | 0.00 | 0.00 | 0.00 | 25 | 1019.7 |
| 20260507150818 | 58 | 136 | 22.0 | 29.0 | 0.00 | 0.00 | 0.00 | 28 | 1019.5 |
| 20260507150315 | 58 | 124 | 21.0 | 28.0 | 0.00 | 0.00 | 0.00 | 30 | 1019.7 |
| 20260507145811 | 58 | 127 | 18.0 | 32.0 | 0.00 | 0.00 | 0.00 | 29 | 1019.8 |
| 20260507145307 | 58 | 152 | 12.0 | 31.0 | 0.00 | 0.00 | 0.00 | 30 | 1019.6 |
| 20260507144805 | 58 | 155 | 7.0 | 27.0 | 0.00 | 0.00 | 0.00 | 29 | 1019.8 |
| 20260507144302 | 58 | 164 | 10.0 | 32.0 | 0.00 | 0.00 | 0.00 | 29 | 1019.6 |
| 20260507143758 | 59 | 148 | 11.0 | 25.0 | 0.00 | 0.00 | 0.00 | 28 | 1019.5 |
| 20260507143256 | 59 | 126 | 16.0 | 29.0 | 0.00 | 0.00 | 0.00 | 26 | 1019.7 |
| 20260507142751 | 59 | 133 | 29.0 | 35.0 | 0.00 | 0.00 | 0.00 | 26 | 1019.8 |
| 20260507142248 | 59 | 125 | 23.0 | 32.0 | 0.00 | 0.00 | 0.00 | 26 | 1019.5 |
| 20260507141744 | 58 | 125 | 26.0 | 29.0 | 0.00 | 0.00 | 0.00 | 26 | 1019.5 |
| 20260507141242 | 58 | 147 | 23.0 | 32.0 | 0.00 | 0.00 | 0.00 | 28 | 1019.7 |
| 20260507140737 | 58 | 120 | 21.0 | 28.0 | 0.00 | 0.00 | 0.00 | 28 | 1019.9 |
| 20260507140235 | 57 | 151 | 17.0 | 26.0 | 0.00 | 0.00 | 0.00 | 28 | 1019.6 |
| 20260507135732 | 57 | 150 | 18.0 | 34.0 | 0.00 | 0.00 | 0.00 | 27 | 1019.8 |
| 20260507135230 | 58 | 155 | 13.0 | 29.0 | 0.00 | 0.00 | 0.00 | 28 | 1019.6 |
| 20260507134725 | 57 | 156 | 17.0 | 27.0 | 0.00 | 0.00 | 0.00 | 27 | 1019.6 |
| 20260507134222 | 57 | 137 | 15.0 | 33.0 | 0.00 | 0.00 | 0.00 | 28 | 1019.6 |
| 20260507133718 | 56 | 144 | 17.0 | 26.0 | 0.00 | 0.00 | 0.00 | 28 | 1019.6 |
| 20260507133215 | 55 | 130 | 12.0 | 26.0 | 0.00 | 0.00 | 0.00 | 28 | 1019.6 |
| 20260507132713 | 54 | 142 | 13.0 | 30.0 | 0.00 | 0.00 | 0.00 | 31 | 1019.5 |
| 20260507132209 | 53 | 147 | 11.0 | 29.0 | 0.00 | 0.00 | 0.00 | 31 | 1019.2 |
| 20260507131706 | 53 | 138 | 13.0 | 31.0 | 0.00 | 0.00 | 0.00 | 32 | 1019.6 |
| 20260507131203 | 52 | 144 | 15.0 | 27.0 | 0.00 | 0.00 | 0.00 | 33 | 1019.6 |
| 20260507130700 | 52 | 133 | 19.0 | 26.0 | 0.00 | 0.00 | 0.00 | 32 | 1019.6 |
| 20260507130157 | 52 | 151 | 8.0 | 28.0 | 0.00 | 0.00 | 0.00 | 32 | 1019.7 |
| 20260507125656 | 52 | 152 | 17.0 | 31.0 | 0.00 | 0.00 | 0.00 | 33 | 1019.7 |
| 20260507125154 | 52 | 158 | 15.0 | 32.0 | 0.00 | 0.00 | 0.00 | 33 | 1019.5 |
| 20260507124649 | 52 | 145 | 17.0 | 33.0 | 0.00 | 0.00 | 0.00 | 33 | 1019.5 |
| 20260507124147 | 52 | 153 | 28.0 | 31.0 | 0.00 | 0.00 | 0.00 | 33 | 1019.5 |
| 20260507123645 | 52 | 140 | 19.0 | 28.0 | 0.00 | 0.00 | 0.00 | 34 | 1019.5 |
| 20260507123142 | 51 | 145 | 8.0 | 33.0 | 0.00 | 0.00 | 0.00 | 35 | 1019.2 |
| 20260507122637 | 52 | 141 | 26.0 | 30.0 | 0.00 | 0.00 | 0.00 | 34 | 1019.0 |
| 20260507122133 | 53 | 148 | 15.0 | 24.0 | 0.00 | 0.00 | 0.00 | 31 | 1019.0 |
| 20260507121629 | 54 | 154 | 20.0 | 29.0 | 0.00 | 0.00 | 0.00 | 30 | 1019.0 |
| 20260507121126 | 54 | 126 | 19.0 | 29.0 | 0.00 | 0.00 | 0.00 | 29 | 1018.9 |
| 20260507120622 | 54 | 142 | 12.0 | 27.0 | 0.00 | 0.00 | 0.00 | 29 | 1019.1 |
| 20260507120118 | 54 | 150 | 12.0 | 26.0 | 0.00 | 0.00 | 0.00 | 29 | 1019.3 |
| 20260507115615 | 54 | 146 | 17.0 | 26.0 | 0.00 | 0.00 | 0.00 | 29 | 1019.3 |
| 20260507115111 | 54 | 157 | 11.0 | 24.0 | 0.00 | 0.00 | 0.00 | 29 | 1019.2 |
| 20260507114607 | 54 | 156 | 8.0 | 25.0 | 0.00 | 0.00 | 0.00 | 29 | 1019.6 |
| 20260507114104 | 54 | 145 | 12.0 | 22.0 | 0.00 | 0.00 | 0.00 | 29 | 1019.5 |
| 20260507113601 | 54 | 149 | 17.0 | 23.0 | 0.00 | 0.00 | 0.00 | 30 | 1019.3 |
| 20260507113058 | 54 | 151 | 21.0 | 24.0 | 0.00 | 0.00 | 0.00 | 30 | 1019.6 |
| 20260507112556 | 54 | 155 | 17.0 | 22.0 | 0.00 | 0.00 | 0.00 | 31 | 1019.5 |
| 20260507112053 | 54 | 154 | 15.0 | 26.0 | 0.00 | 0.00 | 0.00 | 31 | 1019.2 |
| 20260507111550 | 54 | 137 | 20.0 | 27.0 | 0.00 | 0.00 | 0.00 | 30 | 1019.2 |
| 20260507111046 | 53 | 144 | 16.0 | 26.0 | 0.00 | 0.00 | 0.00 | 31 | 1019.2 |
| 20260507110543 | 53 | 148 | 20.0 | 29.0 | 0.00 | 0.00 | 0.00 | 32 | 1019.1 |
| 20260507110039 | 53 | 142 | 17.0 | 31.0 | 0.00 | 0.00 | 0.00 | 32 | 1019.2 |
| 20260507105536 | 53 | 168 | 14.0 | 28.0 | 0.00 | 0.00 | 0.00 | 32 | 1019.3 |
| 20260507105032 | 53 | 147 | 20.0 | 29.0 | 0.00 | 0.00 | 0.00 | 33 | 1019.3 |
| 20260507104530 | 53 | 163 | 20.0 | 27.0 | 0.00 | 0.00 | 0.00 | 33 | 1019.6 |
| 20260507104026 | 53 | 136 | 23.0 | 28.0 | 0.00 | 0.00 | 0.00 | 33 | 1019.3 |
| 20260507103522 | 53 | 147 | 16.0 | 28.0 | 0.00 | 0.00 | 0.00 | 32 | 1019.6 |
| 20260507103019 | 53 | 154 | 15.0 | 27.0 | 0.00 | 0.00 | 0.00 | 31 | 1019.5 |
| 20260507102516 | 53 | 160 | 15.0 | 28.0 | 0.00 | 0.00 | 0.00 | 32 | 1019.7 |
| 20260507102012 | 54 | 142 | 14.0 | 29.0 | 0.00 | 0.00 | 0.00 | 31 | 1019.5 |
| 20260507101507 | 54 | 152 | 19.0 | 29.0 | 0.00 | 0.00 | 0.00 | 31 | 1019.6 |
| 20260507101004 | 54 | 143 | 17.0 | 28.0 | 0.00 | 0.00 | 0.00 | 30 | 1019.2 |
| 20260507100501 | 54 | 148 | 10.0 | 24.0 | 0.00 | 0.00 | 0.00 | 30 | 1019.6 |
| 20260507095959 | 54 | 155 | 15.0 | 26.0 | 0.00 | 0.00 | 0.00 | 29 | 1019.8 |
| 20260507095457 | 54 | 144 | 14.0 | 23.0 | 0.00 | 0.00 | 0.00 | 30 | 1019.7 |
| 20260507094953 | 55 | 145 | 16.0 | 24.0 | 0.00 | 0.00 | 0.00 | 30 | 1019.9 |
| 20260507094449 | 55 | 149 | 16.0 | 24.0 | 0.00 | 0.00 | 0.00 | 29 | 1019.8 |
| 20260507093947 | 55 | 143 | 8.0 | 22.0 | 0.00 | 0.00 | 0.00 | 29 | 1019.9 |
| 20260507093444 | 55 | 158 | 11.0 | 25.0 | 0.00 | 0.00 | 0.00 | 29 | 1020.0 |
| 20260507092943 | 55 | 143 | 11.0 | 24.0 | 0.00 | 0.00 | 0.00 | 29 | 1020.3 |
| 20260507092438 | 55 | 169 | 13.0 | 19.0 | 0.00 | 0.00 | 0.00 | 29 | 1020.4 |
| 20260507091935 | 55 | 166 | 10.0 | 21.0 | 0.00 | 0.00 | 0.00 | 29 | 1020.1 |
| 20260507091432 | 55 | 144 | 14.0 | 20.0 | 0.00 | 0.00 | 0.00 | 28 | 1020.0 |
| 20260507090928 | 55 | 132 | 20.0 | 22.0 | 0.00 | 0.00 | 0.00 | 28 | 1020.1 |
| 20260507090424 | 55 | 143 | 16.0 | 25.0 | 0.00 | 0.00 | 0.00 | 28 | 1020.4 |
| 20260507085921 | 55 | 145 | 11.0 | 22.0 | 0.00 | 0.00 | 0.00 | 28 | 1020.1 |
| 20260507085418 | 55 | 141 | 15.0 | 22.0 | 0.00 | 0.00 | 0.00 | 29 | 1020.3 |
| 20260507084915 | 55 | 168 | 9.0 | 26.0 | 0.00 | 0.00 | 0.00 | 30 | 1020.3 |
| 20260507084412 | 55 | 151 | 12.0 | 20.0 | 0.00 | 0.00 | 0.00 | 30 | 1020.5 |
| 20260507083909 | 54 | 144 | 15.0 | 22.0 | 0.00 | 0.00 | 0.00 | 31 | 1020.4 |
| 20260507083405 | 55 | 145 | 18.0 | 25.0 | 0.00 | 0.00 | 0.00 | 31 | 1020.5 |
| 20260507082901 | 55 | 141 | 12.0 | 21.0 | 0.00 | 0.00 | 0.00 | 30 | 1020.5 |
| 20260507082357 | 55 | 146 | 9.0 | 23.0 | 0.00 | 0.00 | 0.00 | 29 | 1020.6 |
| 20260507081855 | 55 | 151 | 19.0 | 20.0 | 0.00 | 0.00 | 0.00 | 29 | 1020.7 |
| 20260507081350 | 55 | 172 | 13.0 | 21.0 | 0.00 | 0.00 | 0.00 | 30 | 1020.5 |
| 20260507080848 | 55 | 147 | 17.0 | 23.0 | 0.00 | 0.00 | 0.00 | 30 | 1020.7 |
| 20260507080343 | 55 | 155 | 15.0 | 21.0 | 0.00 | 0.00 | 0.00 | 31 | 1020.6 |
| 20260507075839 | 55 | 134 | 14.0 | 19.0 | 0.00 | 0.00 | 0.00 | 31 | 1020.8 |
| 20260507075335 | 55 | 154 | 12.0 | 19.0 | 0.00 | 0.00 | 0.00 | 31 | 1020.7 |
| 20260507074832 | 55 | 153 | 13.0 | 24.0 | 0.00 | 0.00 | 0.00 | 32 | 1020.8 |
| 20260507074329 | 55 | 143 | 15.0 | 21.0 | 0.00 | 0.00 | 0.00 | 32 | 1021.0 |
| 20260507073826 | 55 | 128 | 13.0 | 20.0 | 0.00 | 0.00 | 0.00 | 32 | 1021.0 |
| 20260507073323 | 55 | 142 | 16.0 | 17.0 | 0.00 | 0.00 | 0.00 | 32 | 1020.8 |
| 20260507072820 | 55 | 155 | 10.0 | 21.0 | 0.00 | 0.00 | 0.00 | 33 | 1021.1 |
| 20260507072318 | 55 | 142 | 9.0 | 18.0 | 0.00 | 0.00 | 0.00 | 33 | 1021.1 |
| 20260507071815 | 55 | 131 | 11.0 | 20.0 | 0.00 | 0.00 | 0.00 | 33 | 1021.3 |
| 20260507071312 | 55 | 132 | 12.0 | 21.0 | 0.00 | 0.00 | 0.00 | 32 | 1021.0 |
| 20260507070808 | 55 | 125 | 19.0 | 23.0 | 0.00 | 0.00 | 0.00 | 32 | 1021.2 |
| 20260507070306 | 55 | 131 | 16.0 | 27.0 | 0.00 | 0.00 | 0.00 | 32 | 1021.1 |
| 20260507065802 | 54 | 134 | 19.0 | 20.0 | 0.00 | 0.00 | 0.00 | 33 | 1021.3 |
| 20260507065259 | 54 | 149 | 11.0 | 19.0 | 0.00 | 0.00 | 0.00 | 34 | 1021.1 |
| 20260507064756 | 54 | 141 | 11.0 | 17.0 | 0.00 | 0.00 | 0.00 | 34 | 1021.4 |
| 20260507064255 | 54 | 147 | 13.0 | 19.0 | 0.00 | 0.00 | 0.00 | 34 | 1021.1 |
| 20260507063752 | 54 | 126 | 14.0 | 18.0 | 0.00 | 0.00 | 0.00 | 34 | 1021.2 |
| 20260507063249 | 54 | 130 | 12.0 | 19.0 | 0.00 | 0.00 | 0.00 | 34 | 1021.2 |
| 20260507062745 | 54 | 142 | 9.0 | 16.0 | 0.00 | 0.00 | 0.00 | 34 | 1021.3 |
| 20260507062243 | 54 | 163 | 5.0 | 17.0 | 0.00 | 0.00 | 0.00 | 34 | 1021.1 |
| 20260507061741 | 54 | 163 | 8.0 | 13.0 | 0.00 | 0.00 | 0.00 | 34 | 1021.2 |
| 20260507061238 | 54 | 143 | 11.0 | 21.0 | 0.00 | 0.00 | 0.00 | 34 | 1021.0 |
| 20260507060737 | 54 | 149 | 11.0 | 18.0 | 0.00 | 0.00 | 0.00 | 33 | 1021.1 |
| 20260507060233 | 54 | 142 | 15.0 | 16.0 | 0.00 | 0.00 | 0.00 | 34 | 1021.2 |
| 20260507055729 | 54 | 138 | 7.0 | 18.0 | 0.00 | 0.13 | 0.13 | 33 | 1021.2 |
| 20260507055225 | 54 | 131 | 12.0 | 16.0 | 0.00 | 0.13 | 0.13 | 33 | 1021.3 |
| 20260507054721 | 54 | 133 | 11.0 | 21.0 | 0.00 | 0.13 | 0.13 | 33 | 1021.1 |
| 20260507054218 | 54 | 147 | 13.0 | 19.0 | 0.00 | 0.13 | 0.13 | 33 | 1021.3 |
| 20260507053715 | 54 | 140 | 10.0 | 15.0 | 0.00 | 0.13 | 0.13 | 34 | 1021.1 |
| 20260507053213 | 54 | 151 | 8.0 | 16.0 | 0.00 | 0.13 | 0.13 | 33 | 1021.2 |
| 20260507052712 | 54 | 145 | 12.0 | 14.0 | 0.00 | 0.13 | 0.13 | 33 | 1021.2 |
| 20260507052207 | 54 | 156 | 12.0 | 16.0 | 0.00 | 0.13 | 0.13 | 32 | 1021.1 |
| 20260507051706 | 54 | 132 | 14.0 | 16.0 | 0.00 | 0.13 | 0.13 | 33 | 1021.0 |
| 20260507051202 | 54 | 157 | 10.0 | 15.0 | 0.00 | 0.13 | 0.13 | 32 | 1021.1 |
| 20260507050659 | 53 | 144 | 8.0 | 13.0 | 0.00 | 0.13 | 0.13 | 32 | 1021.1 |
| 20260507050156 | 54 | 162 | 7.0 | 10.0 | 0.00 | 0.13 | 0.13 | 33 | 1021.2 |
| 20260507045652 | 54 | 129 | 9.0 | 13.0 | 0.00 | 0.13 | 0.13 | 31 | 1021.2 |
| 20260507045149 | 55 | 147 | 6.0 | 13.0 | 0.00 | 0.13 | 0.13 | 31 | 1021.3 |
| 20260507044646 | 54 | 146 | 7.0 | 14.0 | 0.00 | 0.13 | 0.13 | 31 | 1021.3 |
| 20260507044143 | 54 | 141 | 10.0 | 14.0 | 0.00 | 0.13 | 0.13 | 31 | 1021.2 |
| 20260507043639 | 53 | 135 | 15.0 | 17.0 | 0.00 | 0.13 | 0.13 | 32 | 1021.2 |
| 20260507043136 | 53 | 130 | 11.0 | 12.0 | 0.00 | 0.13 | 0.13 | 33 | 1021.0 |
| 20260507042632 | 52 | 104 | 6.0 | 11.0 | 0.00 | 0.13 | 0.13 | 35 | 1021.0 |
| 20260507042127 | 51 | 132 | 7.0 | 10.0 | 0.00 | 0.13 | 0.13 | 36 | 1020.8 |
| 20260507041624 | 51 | 112 | 11.0 | 15.0 | 0.00 | 0.13 | 0.13 | 36 | 1021.1 |
| 20260507041121 | 51 | 126 | 15.0 | 15.0 | 0.00 | 0.13 | 0.13 | 36 | 1021.2 |
| 20260507040618 | 51 | 116 | 7.0 | 11.0 | 0.00 | 0.13 | 0.13 | 35 | 1021.2 |
| 20260507040114 | 52 | 133 | 10.0 | 12.0 | 0.00 | 0.13 | 0.13 | 36 | 1021.2 |
| 20260507035610 | 52 | 144 | 9.0 | 16.0 | 0.00 | 0.13 | 0.13 | 35 | 1021.3 |
| 20260507035106 | 52 | 128 | 11.0 | 16.0 | 0.00 | 0.13 | 0.13 | 36 | 1021.2 |
| 20260507034604 | 52 | 130 | 10.0 | 15.0 | 0.00 | 0.13 | 0.13 | 35 | 1021.1 |
| 20260507034102 | 53 | 141 | 9.0 | 15.0 | 0.00 | 0.13 | 0.13 | 35 | 1021.1 |
| 20260507033600 | 53 | 150 | 9.0 | 15.0 | 0.00 | 0.13 | 0.13 | 34 | 1021.1 |
| 20260507033056 | 53 | 135 | 10.0 | 13.0 | 0.00 | 0.13 | 0.13 | 33 | 1021.0 |
| 20260507032554 | 53 | 135 | 10.0 | 15.0 | 0.00 | 0.13 | 0.13 | 33 | 1021.0 |
| 20260507032050 | 53 | 125 | 15.0 | 17.0 | 0.00 | 0.13 | 0.13 | 33 | 1020.6 |
| 20260507031546 | 53 | 125 | 12.0 | 13.0 | 0.00 | 0.13 | 0.13 | 33 | 1020.7 |
| 20260507031043 | 61 | 136 | 8.0 | 9.0 | 0.00 | 0.13 | 0.13 | 26 | 1020.7 |
| 20260507030540 | 61 | 137 | 5.0 | 6.0 | 0.00 | 0.13 | 0.13 | 26 | 1020.7 |
| 20260507030038 | 61 | 135 | 6.0 | 7.0 | 0.00 | 0.13 | 0.13 | 26 | 1020.7 |
| 20260507025535 | 61 | 130 | 4.0 | 4.0 | 0.00 | 0.13 | 0.13 | 26 | 1020.7 |
| 20260507025032 | 61 | 187 | 2.0 | 4.0 | 0.00 | 0.13 | 0.13 | 26 | 1020.5 |
| 20260507024530 | 61 | 216 | 3.0 | 4.0 | 0.00 | 0.13 | 0.13 | 26 | 1020.4 |
| 20260507024026 | 61 | 211 | 4.0 | 5.0 | 0.00 | 0.13 | 0.13 | 26 | 1020.5 |
| 20260507023522 | 61 | 224 | 2.0 | 3.0 | 0.00 | 0.13 | 0.13 | 26 | 1020.5 |
| 20260507023020 | 61 | 255 | 3.0 | 6.0 | 0.00 | 0.13 | 0.13 | 26 | 1020.5 |
| 20260507022516 | 61 | 267 | 4.0 | 5.0 | 0.00 | 0.13 | 0.13 | 26 | 1020.5 |
| 20260507022012 | 61 | 285 | 5.0 | 6.0 | 0.00 | 0.13 | 0.13 | 26 | 1020.4 |
| 20260507021508 | 61 | 313 | 1.0 | 8.0 | 0.00 | 0.13 | 0.13 | 26 | 1020.3 |
| 20260507021005 | 63 | 309 | 2.0 | 7.0 | 0.00 | 0.13 | 0.13 | 24 | 1020.1 |
| 20260507020502 | 63 | 337 | 5.0 | 6.0 | 0.00 | 0.13 | 0.13 | 24 | 1020.1 |
| 20260507015959 | 63 | 353 | 8.0 | 9.0 | 0.00 | 0.13 | 0.13 | 24 | 1020.3 |
| 20260507015457 | 63 | 342 | 7.0 | 10.0 | 0.00 | 0.13 | 0.13 | 24 | 1020.4 |
| 20260507014954 | 63 | 357 | 9.0 | 11.0 | 0.00 | 0.13 | 0.13 | 23 | 1020.4 |
| 20260507014450 | 64 | 357 | 6.0 | 9.0 | 0.00 | 0.13 | 0.13 | 24 | 1020.7 |
| 20260507013946 | 64 | 337 | 5.0 | 9.0 | 0.00 | 0.13 | 0.13 | 23 | 1020.5 |
| 20260507013443 | 66 | 323 | 6.0 | 10.0 | 0.00 | 0.13 | 0.13 | 23 | 1020.5 |
| 20260507012941 | 66 | 335 | 6.0 | 12.0 | 0.00 | 0.13 | 0.13 | 23 | 1020.6 |
| 20260507012437 | 66 | 354 | 6.0 | 7.0 | 0.00 | 0.13 | 0.13 | 24 | 1020.6 |
| 20260507011934 | 66 | 6 | 9.0 | 11.0 | 0.00 | 0.13 | 0.13 | 24 | 1020.4 |
| 20260507011432 | 65 | 23 | 6.0 | 11.0 | 0.00 | 0.13 | 0.13 | 24 | 1020.6 |
| 20260507010931 | 65 | 0 | 4.0 | 12.0 | 0.00 | 0.13 | 0.13 | 24 | 1020.4 |
| 20260507010427 | 65 | 351 | 10.0 | 15.0 | 0.00 | 0.13 | 0.13 | 24 | 1020.4 |
| 20260507005924 | 65 | 355 | 8.0 | 11.0 | 0.00 | 0.13 | 0.13 | 24 | 1020.5 |
| 20260507005421 | 66 | 337 | 13.0 | 17.0 | 0.00 | 0.13 | 0.13 | 23 | 1020.5 |
| 20260507004917 | 65 | 345 | 9.0 | 15.0 | 0.00 | 0.13 | 0.13 | 23 | 1020.6 |
| 20260507004414 | 65 | 325 | 9.0 | 20.0 | 0.00 | 0.13 | 0.13 | 23 | 1020.7 |
| 20260507003912 | 66 | 340 | 9.0 | 9.0 | 0.00 | 0.13 | 0.13 | 22 | 1020.7 |
| 20260507003407 | 66 | 319 | 4.0 | 11.0 | 0.00 | 0.13 | 0.13 | 22 | 1020.5 |
| 20260507002902 | 66 | 354 | 9.0 | 13.0 | 0.00 | 0.13 | 0.13 | 23 | 1020.4 |
| 20260507002358 | 66 | 310 | 5.0 | 13.0 | 0.00 | 0.13 | 0.13 | 22 | 1020.5 |
| 20260507001856 | 66 | 330 | 9.0 | 14.0 | 0.00 | 0.13 | 0.13 | 22 | 1020.5 |
| 20260507001352 | 66 | 292 | 5.0 | 13.0 | 0.00 | 0.13 | 0.13 | 22 | 1020.6 |
| 20260507000849 | 65 | 7 | 5.0 | 13.0 | 0.00 | 0.13 | 0.13 | 24 | 1020.4 |
| 20260507000344 | 66 | 302 | 22.0 | 25.0 | 0.00 | 0.13 | 0.13 | 22 | 1020.5 |
| 20260506235841 | 66 | 34 | 9.0 | 16.0 | 0.00 | 0.13 | 0.13 | 23 | 1020.5 |
| 20260506235338 | 65 | 271 | 11.0 | 15.0 | 0.00 | 0.13 | 0.13 | 22 | 1020.4 |
| 20260506234834 | 66 | 3 | 3.0 | 18.0 | 0.00 | 0.13 | 0.13 | 22 | 1020.4 |
| 20260506234332 | 66 | 328 | 8.0 | 10.0 | 0.00 | 0.13 | 0.13 | 24 | 1020.4 |
| 20260506233830 | 66 | 310 | 7.0 | 13.0 | 0.00 | 0.13 | 0.13 | 25 | 1020.5 |
| 20260506233325 | 65 | 335 | 4.0 | 15.0 | 0.00 | 0.13 | 0.13 | 26 | 1020.4 |
| 20260506232822 | 65 | 287 | 16.0 | 21.0 | 0.00 | 0.13 | 0.13 | 25 | 1020.3 |
| 20260506232318 | 65 | 337 | 7.0 | 14.0 | 0.00 | 0.13 | 0.13 | 27 | 1020.3 |
| 20260506231815 | 64 | 306 | 9.0 | 25.0 | 0.00 | 0.13 | 0.13 | 25 | 1020.3 |
| 20260506231313 | 63 | 350 | 9.0 | 18.0 | 0.00 | 0.13 | 0.13 | 26 | 1020.5 |
| 20260506230810 | 63 | 345 | 10.0 | 21.0 | 0.00 | 0.13 | 0.13 | 26 | 1020.4 |
| 20260506230306 | 63 | 343 | 8.0 | 18.0 | 0.00 | 0.13 | 0.13 | 25 | 1020.6 |
| 20260506225803 | 63 | 327 | 5.0 | 22.0 | 0.00 | 0.13 | 0.13 | 25 | 1020.5 |
| 20260506225300 | 63 | 316 | 13.0 | 15.0 | 0.00 | 0.13 | 0.13 | 25 | 1020.4 |
| 20260506224756 | 62 | 309 | 10.0 | 20.0 | 0.00 | 0.13 | 0.13 | 26 | 1020.5 |
| 20260506224254 | 63 | 330 | 15.0 | 20.0 | 0.00 | 0.13 | 0.13 | 25 | 1020.3 |
| 20260506223750 | 63 | 332 | 12.0 | 19.0 | 0.00 | 0.13 | 0.13 | 25 | 1020.6 |
| 20260506223246 | 62 | 287 | 13.0 | 20.0 | 0.00 | 0.13 | 0.13 | 27 | 1020.5 |
| 20260506222743 | 63 | 8 | 13.0 | 30.0 | 0.00 | 0.13 | 0.13 | 25 | 1020.5 |
| 20260506222238 | 62 | 284 | 14.0 | 19.0 | 0.00 | 0.13 | 0.13 | 27 | 1020.6 |
| 20260506221736 | 61 | 282 | 10.0 | 19.0 | 0.00 | 0.13 | 0.13 | 26 | 1020.8 |
| 20260506221234 | 60 | 349 | 8.0 | 11.0 | 0.00 | 0.13 | 0.13 | 28 | 1020.7 |
| 20260506220731 | 60 | 306 | 16.0 | 22.0 | 0.00 | 0.13 | 0.13 | 26 | 1020.7 |
| 20260506220226 | 60 | 285 | 14.0 | 19.0 | 0.00 | 0.13 | 0.13 | 27 | 1020.8 |
| 20260506215723 | 61 | 325 | 12.0 | 26.0 | 0.00 | 0.13 | 0.13 | 26 | 1020.7 |
| 20260506215218 | 62 | 331 | 23.0 | 26.0 | 0.00 | 0.13 | 0.13 | 26 | 1020.8 |
| 20260506214715 | 62 | 310 | 15.0 | 28.0 | 0.00 | 0.13 | 0.13 | 25 | 1020.8 |
| 20260506214212 | 61 | 311 | 17.0 | 18.0 | 0.00 | 0.13 | 0.13 | 27 | 1021.0 |
| 20260506213710 | 61 | 312 | 17.0 | 28.0 | 0.00 | 0.13 | 0.13 | 26 | 1020.7 |
| 20260506213208 | 60 | 328 | 13.0 | 22.0 | 0.00 | 0.13 | 0.13 | 25 | 1021.0 |
| 20260506212705 | 61 | 316 | 16.0 | 25.0 | 0.00 | 0.13 | 0.13 | 25 | 1020.6 |
| 20260506212200 | 61 | 356 | 15.0 | 20.0 | 0.00 | 0.13 | 0.13 | 27 | 1021.0 |
| 20260506211656 | 61 | 329 | 11.0 | 22.0 | 0.00 | 0.13 | 0.13 | 29 | 1020.8 |
| 20260506211152 | 61 | 293 | 19.0 | 27.0 | 0.00 | 0.13 | 0.13 | 26 | 1020.6 |
| 20260506210649 | 60 | 278 | 13.0 | 18.0 | 0.00 | 0.13 | 0.13 | 26 | 1020.4 |
| 20260506210146 | 60 | 335 | 12.0 | 27.0 | 0.00 | 0.13 | 0.13 | 27 | 1020.6 |
| 20260506205643 | 61 | 277 | 17.0 | 18.0 | 0.00 | 0.13 | 0.13 | 29 | 1020.5 |
| 20260506205138 | 60 | 343 | 12.0 | 17.0 | 0.00 | 0.13 | 0.13 | 26 | 1020.7 |
| 20260506204636 | 60 | 306 | 22.0 | 28.0 | 0.00 | 0.13 | 0.13 | 28 | 1020.7 |
| 20260506204132 | 59 | 283 | 17.0 | 23.0 | 0.00 | 0.13 | 0.13 | 25 | 1020.7 |
| 20260506203631 | 60 | 282 | 11.0 | 22.0 | 0.00 | 0.13 | 0.13 | 26 | 1020.5 |
| 20260506203127 | 60 | 264 | 11.0 | 19.0 | 0.00 | 0.13 | 0.13 | 24 | 1020.7 |
| 20260506202626 | 60 | 343 | 10.0 | 25.0 | 0.00 | 0.13 | 0.13 | 28 | 1020.8 |
| 20260506202121 | 60 | 288 | 13.0 | 20.0 | 0.00 | 0.13 | 0.13 | 29 | 1020.6 |
| 20260506201619 | 59 | 343 | 14.0 | 21.0 | 0.00 | 0.13 | 0.13 | 25 | 1020.5 |
| 20260506201115 | 60 | 289 | 9.0 | 19.0 | 0.00 | 0.13 | 0.13 | 26 | 1020.4 |
| 20260506200611 | 59 | 300 | 16.0 | 34.0 | 0.00 | 0.13 | 0.13 | 24 | 1020.7 |
| 20260506200108 | 59 | 327 | 10.0 | 16.0 | 0.00 | 0.13 | 0.13 | 27 | 1020.7 |
| 20260506195605 | 58 | 311 | 8.0 | 27.0 | 0.00 | 0.13 | 0.13 | 27 | 1020.5 |
| 20260506195102 | 57 | 307 | 10.0 | 30.0 | 0.00 | 0.13 | 0.13 | 25 | 1020.7 |
| 20260506194559 | 58 | 315 | 19.0 | 24.0 | 0.00 | 0.13 | 0.13 | 23 | 1020.7 |
| 20260506194055 | 57 | 293 | 13.0 | 19.0 | 0.00 | 0.13 | 0.13 | 25 | 1020.7 |
| 20260506193553 | 57 | 284 | 25.0 | 28.0 | 0.00 | 0.13 | 0.13 | 25 | 1020.6 |
| 20260506193050 | 57 | 274 | 17.0 | 17.0 | 0.00 | 0.13 | 0.13 | 26 | 1020.7 |
| 20260506192547 | 56 | 333 | 20.0 | 24.0 | 0.00 | 0.13 | 0.13 | 27 | 1020.7 |
| 20260506192043 | 56 | 311 | 19.0 | 27.0 | 0.00 | 0.13 | 0.13 | 25 | 1020.6 |
| 20260506191539 | 56 | 312 | 20.0 | 26.0 | 0.00 | 0.13 | 0.13 | 27 | 1020.5 |
| 20260506191035 | 56 | 297 | 20.0 | 23.0 | 0.00 | 0.13 | 0.13 | 24 | 1020.4 |
| 20260506190533 | 56 | 282 | 16.0 | 26.0 | 0.00 | 0.13 | 0.13 | 25 | 1020.6 |
| 20260506190030 | 56 | 343 | 9.0 | 20.0 | 0.00 | 0.13 | 0.13 | 26 | 1020.5 |
| 20260506185527 | 56 | 327 | 18.0 | 31.0 | 0.00 | 0.13 | 0.13 | 24 | 1020.4 |
| 20260506185023 | 56 | 330 | 14.0 | 17.0 | 0.00 | 0.13 | 0.13 | 26 | 1020.4 |
| 20260506184521 | 56 | 335 | 20.0 | 25.0 | 0.00 | 0.13 | 0.13 | 25 | 1020.5 |
| 20260506184018 | 55 | 294 | 8.0 | 21.0 | 0.00 | 0.13 | 0.13 | 28 | 1020.3 |
| 20260506183513 | 55 | 340 | 16.0 | 36.0 | 0.00 | 0.13 | 0.13 | 28 | 1020.5 |
| 20260506183010 | 55 | 304 | 17.0 | 27.0 | 0.00 | 0.13 | 0.13 | 26 | 1020.7 |
| 20260506182508 | 55 | 332 | 12.0 | 22.0 | 0.00 | 0.13 | 0.13 | 28 | 1020.7 |
| 20260506182005 | 55 | 313 | 8.0 | 21.0 | 0.00 | 0.13 | 0.13 | 28 | 1020.6 |
| 20260506181503 | 56 | 314 | 15.0 | 27.0 | 0.00 | 0.13 | 0.13 | 27 | 1020.4 |
| 20260506180959 | 55 | 311 | 11.0 | 18.0 | 0.00 | 0.13 | 0.13 | 29 | 1020.5 |
| 20260506180456 | 55 | 326 | 13.0 | 25.0 | 0.00 | 0.13 | 0.13 | 30 | 1020.6 |
| 20260506175953 | 55 | 323 | 26.0 | 27.0 | 0.00 | 0.13 | 0.13 | 30 | 1020.6 |
| 20260506175449 | 54 | 324 | 10.0 | 15.0 | 0.00 | 0.13 | 0.13 | 30 | 1020.3 |
| 20260506174946 | 54 | 324 | 10.0 | 15.0 | 0.00 | 0.13 | 0.13 | 31 | 1020.3 |
| 20260506174444 | 54 | 324 | 10.0 | 15.0 | 0.00 | 0.13 | 0.13 | 30 | 1020.4 |
| 20260506173940 | 54 | 324 | 10.0 | 15.0 | 0.00 | 0.13 | 0.13 | 33 | 1020.4 |
| 20260506173438 | 54 | 324 | 10.0 | 15.0 | 0.00 | 0.13 | 0.13 | 31 | 1020.1 |
| 20260506172934 | 54 | 324 | 10.0 | 15.0 | 0.00 | 0.13 | 0.13 | 33 | 1020.1 |
| 20260506172432 | 53 | 324 | 10.0 | 15.0 | 0.00 | 0.13 | 0.13 | 30 | 1020.1 |
| 20260506171928 | 54 | 324 | 10.0 | 15.0 | 0.00 | 0.13 | 0.13 | 32 | 1019.9 |
| 20260506171426 | 53 | 324 | 10.0 | 15.0 | 0.00 | 0.13 | 0.13 | 32 | 1020.0 |
| 20260506170924 | 53 | 324 | 10.0 | 15.0 | 0.00 | 0.13 | 0.13 | 33 | 1019.9 |
| 20260506170419 | 53 | 324 | 10.0 | 15.0 | 0.00 | 0.13 | 0.13 | 35 | 1019.8 |
| 20260506165919 | 53 | 324 | 10.0 | 15.0 | 0.00 | 0.13 | 0.13 | 33 | 1019.8 |
| 20260506165416 | 53 | 324 | 10.0 | 15.0 | 0.00 | 0.13 | 0.13 | 31 | 1019.7 |
| 20260506164912 | 52 | 324 | 10.0 | 15.0 | 0.00 | 0.13 | 0.13 | 34 | 1019.3 |
| 20260506164408 | 52 | 324 | 10.0 | 15.0 | 0.00 | 0.13 | 0.13 | 38 | 1019.7 |